Location: Newark
(51.2625°N, 13.3939°E)
Time: 06:43:41
(UTC+00:00)

deb Explorer IX - Pass Details

Date: 22 November 2019
Orbit: 545 x 1105 km, 38.8° (Epoch: 05 December)

Event Time Altitude Azimuth Distance (km) Brightness Sun altitude
Rises 22:58:19 0° 225° (SW) 3,849 - -58.9°
Reaches altitude 10° 23:01:49 10° 210° (SSW) 2,834 - -58.9°
Maximum altitude 23:06:44 21° 165° (SSE) 2,027 - -58.8°
Drops below altitude 10° 23:11:16 10° 118° (ESE) 2,584 - -58.7°
Sets 23:14:17 0° 103° (ESE) 3,421 - -58.7°
